Regional Weather Roundup
Issued by NWS

Home | Current Version | Previous Version | Graphics & Text | Print | Product List | Glossary On
Versions: 1 2 3 4 5 6 7 8 9 10 11 12 13 14 15 16 17 18 19 20 21 22 23 24 25 26 27 28 29 30 31 32 33 34 35 36 37 38 39 40 41 42 43 44 45 46 47 48 49 50
000
ASUS43 KLMK 221002
RWRKY
KENTUCKY REGIONAL WEATHER ROUNDUP
NATIONAL WEATHER SERVICE LOUISVILLE KY
500 AM EST MON JAN 22 2018

NOTE "FAIR" INDICATES FEW OR NO CLOUDS BELOW 12,000 FEET
WITH NO SIGNIFICANT WEATHER AND/OR OBSTRUCTIONS TO VISIBILITY.

KYZ001>023-026-027-061>063-070>075-221100-
WESTERN AND SOUTH CENTRAL KENTUCKY

CITY           SKY/WX    TMP DP  RH WIND       PRES   REMARKS
PADUCAH        FAIR      60  45  57 S17G40    29.71F
HENDERSON      FAIR      57  45  64 S18       29.80F
OWENSBORO      FAIR      55  44  66 S17       29.83F
HOPKINSVILLE   FAIR      58  43  57 S13G21    29.86F
BOWLING GREEN  CLOUDY    59  45  59 S16       29.92F
GLASGOW        NOT AVBL
$$

KYZ024-025-028>034-038-045-046-053-221100-
NORTH CENTRAL KENTUCKY

CITY           SKY/WX    TMP DP  RH WIND       PRES   REMARKS
LOUISVILLE/SDF CLOUDY    59  44  57 S17       29.88F
LOUISVILLE/LOU FAIR      58  46  64 S15       29.90F
FORT KNOX      FAIR      55  44  68 S13       29.88F
$$

KYZ035>037-039>044-047>052-055>060-089>105-221100-
NORTHEAST KENTUCKY

CITY           SKY/WX    TMP DP  RH WIND       PRES   REMARKS
LEXINGTON      CLOUDY    55  43  63 S12       29.97F
COVINGTON      CLOUDY    54  45  71 S12       29.92F
FRANKFORT      MOCLDY    53  42  66 SE6       29.93F
$$

KYZ054-064>069-076>088-106>120-221100-
SOUTHEAST KENTUCKY

CITY           SKY/WX    TMP DP  RH WIND       PRES   REMARKS
JACKSON        CLOUDY    55  42  61 VRB3      30.03F
LONDON         FAIR      54  42  64 SE3       30.02F
SOMERSET       NOT AVBL
MIDDLESBORO    FAIR      38  38  99 CALM      30.09F
MONTICELLO     FAIR      58  43  57 SE9G16    30.01
$$





USA.gov is the U.S. government's official web portal to all federal, state and local government web resources and services.